www.pogodaiklimat.ru
ПОГОДА в Траутдейле
Время
и дата
16:53 26.05
17:53 26.05
18:53 26.05
19:53 26.05
20:53 26.05
21:53 26.05
22:53 26.05
23:53 26.05
00:53 27.05
01:53 27.05
02:53 27.05
03:53 27.05
04:53 27.05
05:53 27.05
06:53 27.05
07:53 27.05
08:53 27.05
09:53 27.05
10:53 27.05
11:53 27.05
12:53 27.05
13:53 27.05
14:53 27.05
15:53 27.05
16:53 27.05
17:53 27.05
18:53 27.05
19:53 27.05
20:53 27.05
21:53 27.05
22:53 27.05
23:53 27.05
00:53 28.05
01:53 28.05
02:53 28.05
03:53 28.05
04:37 28.05
04:53 28.05
05:53 28.05
06:46 28.05
06:53 28.05
06:58 28.05
07:06 28.05
07:17 28.05
07:32 28.05
07:39 28.05
07:53 28.05
08:06 28.05
Ветер
(напр.,м/с)
Видим. Явления Облачность Т
(С)
Тd
(С)
f
(%)
Тe
(С)
Тes
(С)
Комфортность P
(гПа)
Po
(гПа)
Тmin
(С)
Tmax
(С)
R
(мм)
R24
(мм)
S
(см)
СЗ 3 16 км 2/0 3600 m
[Ac]
+22.8 +7.2 37 +24 +30 комфорт 1018.3 1016.8
СЗ 2 16 км ясно +22.8 +7.8 38 +24 +29 комфорт 1018.1 1016.8
нст 2 16 км ясно +20.0 +9.4 50 +22 +24 комфорт 1018.4 1016.8
штиль 0 16 км ясно +17.2 +9.4 60 +17 +18 1019.0 1017.5
З 2 16 км ясно +15.0 +9.4 69 +15 +15 1019.8 1018.5
штиль 0 16 км ясно +13.3 +8.9 75 +13 +13 1020.1 1018.9 +13.3 +22.8
штиль 0 16 км ясно +13.9 +8.9 72 +14 +14 1020.5 1019.2
штиль 0 16 км ясно +11.7 +8.9 83 +11 +11 1020.5 1019.2
штиль 0 16 км ясно +10.6 +8.3 86 +10 +10 1020.7 1019.2
штиль 0 16 км ясно +11.1 +8.9 86 +10 +10 1020.7 1019.2
штиль 0 16 км ясно +10.0 +7.8 86 +9 +9 1020.8 1019.5
В 2 16 км ясно +10.0 +7.8 86 +8 +8 1020.8 1019.5 +10.0 +14.4
В 2 16 км ясно +9.4 +7.8 90 +8 +8 1021.0 1019.5
штиль 0 16 км ясно +11.7 +8.9 83 +11 +11 1021.4 1020.2
штиль 0 16 км 2/2 360 м +12.8 +8.9 77 +12 +14 1021.6 1020.2
штиль 0 16 км 2/2 420 м +15.0 +10.0 72 +15 +19 1021.7 1020.2
ЮЗ 2 16 км ясно +16.1 +10.0 67 +16 +23 1021.5 1020.2
штиль 0 16 км ясно +17.2 +10.6 65 +17 +32 опасность
простуды
1021.3 1019.9 +9.4 +17.2
нст 3 16 км ясно +18.9 +10.6 59 +20 +32 1020.9 1019.5
нст 2 16 км ясно +19.4 +10.6 57 +21 +38 комфорт 1020.1 1018.9
нст 2 16 км ясно +21.1 +10.6 51 +23 +41 комфорт 1019.5 1018.2
нст 2 16 км ясно +22.2 +10.0 46 +24 +42 комфорт 1018.9 1017.5
ЮЗ 2 16 км ясно +21.7 +10.0 47 +23 +39 комфорт 1018.3 1016.8
З 2 16 км ясно +22.8 +9.4 42 +24 +37 комфорт 1017.7 1016.2 +17.2 +22.8
нст 2 16 км ясно +23.9 +9.4 40 +25 +33 комфорт 1016.9 1015.5
СЗ 2 16 км ясно +22.8 +9.4 42 +24 +29 комфорт 1016.8 1015.5
штиль 0 16 км ясно +21.1 +10.0 49 +23 +25 комфорт 1016.9 1015.5
штиль 0 16 км ясно +19.4 +10.6 57 +20 +21 1016.9 1015.5
штиль 0 16 км ясно +17.8 +11.1 65 +18 +18 1017.4 1016.2
штиль 0 16 км ясно +17.2 +10.6 65 +17 +17 1017.5 1016.2 +17.2 +24.4
СЗ 2 16 км ясно +16.1 +10.6 70 +16 +16 1017.5 1016.2
штиль 0 16 км ясно +15.0 +10.0 72 +15 +15 1017.4 1016.2
штиль 0 16 км ясно +14.4 +10.0 75 +14 +14 1017.6 1016.2
штиль 0 16 км ясно +13.9 +10.0 77 +14 +14 1017.8 1016.5
штиль 0 16 км 2/2 840 м +13.9 +8.9 72 +14 +14 1018.3 1016.8
штиль 0 16 км 10/10 1020 м +13.9 +8.3 69 +14 +14 1018.8 1017.5 +13.3 +17.2
штиль 0 16 км 10/10 750 м +13.9 +8.3 69 +14 +14 1017.9
штиль 0 16 км 10/10 630 м +13.9 +8.9 72 +14 +14 1019.1 1017.9
В 2 16 км 10/10 630 м +13.9 +8.9 72 +13 +13 1019.6 1018.2
ЮЗ 2 5 км мгла 10/10 390 м +12.2 +9.4 83 +11 +11 1018.5
ЮЗ 2 5 км дымка 10/10 300 м +12.2 +10.0 86 +11 +11 1020.1 1018.9
З 2 5 км дымка 10/10 270 м +12.2 +10.0 86 +11 +11 1018.9
штиль 0 3 км слабый дождь, дымка 10/10 180 m
[Ns]
+12.2 +10.6 90 +12 +12 1018.9
штиль 0 2 км слабый дождь, дымка 10/10 180 m
[Ns]
+12.2 +10.6 90 +12 +12 1019.2
штиль 0 3 км слабый дождь, дымка 10/10 180 m
[Ns]
+12.2 +10.6 90 +12 +12 1018.9
штиль 0 4 км слабый дождь, дымка 10/10 120 m
[Ns]
+12.2 +11.1 93 +12 +12 1018.9
нст 2 6 км мгла 10/10 120 м +12.8 +10.0 83 +12 +12 1020.3 1018.9
СВ 2 6 км дымка 10/10 180 м +12.2 +10.6 90 +11 +11 1018.9
Местоположение метеостанции Portland-Troutdale Airport: широта 45.5511 долгота -122.4089 высота над уровнем моря 11 м.
В архиве по умолчанию представлена погода в Траутдейле за последние 1-2 суток. Обновление информации о фактической погоде в базе происходит ежечасно! Архивные данные за месяц целиком и за предыдущие месяцы Вы можете получить, выбрав интересующий диапазон дат из раскрывающегося списка и нажав кнопку "Ввод!".
Внимание! Архив погоды МЕТАР в базе сайта по станциям, не включенным в климатический монитор, хранится не более 60 дней. Нет смысла пытаться выбрать более раннюю дату.
*Определитесь, кто Вы:
Внимание! Время в таблицах - местное (без учета летнего времени). Для получения всемирного времени необходимо вычесть поправку, которая равна -8 ч.
Смотрите также архив погоды в соседних городах и на ближайших метеорологических станциях:
Партнеры нашего сайта:      
Пояснения к столбцам:
  • Ветер - указаны скорость ветра в м/с - средняя за 10 мин, порывы в срок и между сроками (в фигурных скобках) и направление, откуда дует ветер: С - северный,
  • СВ - северо-восточный, В - восточный, ЮВ - юго-восточный, Ю - южный, ЮЗ - юго-западный, З - западный, СЗ - северо-западный.
  • Видимость - горизонтальная дальность видимости в метрах или километрах. При видимости от 1 до 10 км при отсутствии осадков обычно наблюдается дымка, при ухудшении видимости до 1 км и менее - туман. В сухую погоду видимость может ухудшаться дымом, пылью или мглою.
  • Явления - указаны атмосферные явления, наблюдавшиеся в срок или в последний час перед сроком; фигурными скобками обозначены явления, наблюдавшиеся между сроками (за 1-3 часа до срока); квадратными скобками обозначены град или гололедные отложения с указанием их диаметра в мм.
  • Облачность - указаны через наклонную черту общая и нижняя облачность в баллах и высота нижней границы облаков в метрах; квадратными скобками обозначены формы облаков: Ci - перистые, Cs - перисто-слоистые, Cc - перисто-кучевые, Ac - высококучевые, As - высокослоистые, Sc - слоисто-кучевые, Ns - слоисто-дождевые, Cu - кучевые, Cb - кучево-дождевые. Подробнее классификацию облаков см. в Атласе облаков (PDF).
  • T - Температура воздуха - температура, измеренная на высоте 2 м над землей.
  • Td - Температура точки росы - температура, при понижении до которой содержащийся в воздухе водяной пар достигнет насыщения.
  • f - Относительная влажность воздуха - влажноcть воздуха, измеренная на высоте 2 м над землей.
  • Te - Эффективная температура - температура, которую ощущает одетый по сезону человек в тени. Характеристика душности погоды. При расчете учитывается влияние влажности воздуха и скорости ветра на теплоощущения человека.
  • Tes - Эффективная температура на солнце - температура, которую ощущает человек, с поправкой на солнечный нагрев. Характеристика знойности погоды. Зависит от высоты солнца над горизонтом, облачности и скорости ветра. Ночью, в пасмурную погоду, а также при ветре 12 м/с и более поправка равна нулю.
  • P - Атмосферное давление - приведенное к уровню моря атмосферное давление.
  • Po - Атмосферное давление - измеренное на уровне метеостанции атмосферное давление.
  • Tmin - Минимальная температура - минимум температуры воздуха на высоте 2 м над землей.
  • Tmax - Максимальная температура - максимум температуры воздуха на высоте 2 м над землей.
  • R - Количество осадков - Количество выпавших осадков за период времени, мм. При наведении курсора мыши на число - период времени, за который выпало указанное количество осадков.
  • R24 - Количество осадков - Количество выпавших осадков за 24 часа, мм.
  • S - Снежный покров - Высота снежного покрова, см. При наведении курсора мыши на число - состояние снежного покрова и степень покрытия местности в баллах.